Terminal Aerodrome Forecast
Issued by NWS Central Illinois

Home | Current Version | Previous Version | Text Only | Print | Product List | Glossary On
Versions: 1 2 3 4 5 6 7 8 9 10 11 12 13 14 15 16 17 18
000
FTUS43 KILX 231500 AAA
TAFPIA
TAF AMD
KPIA 231500Z 2315/2412 19006KT P6SM SCT120
     FM231700 18008KT P6SM SCT050 BKN100
     FM240000 14005KT P6SM OVC060=

USA.gov is the U.S. government's official web portal to all federal, state and local government web resources and services.